Location: Unspecified
(0.0000°N, 0.0000°E)
Time: 11:30:29
(UTC+00:00)

Courier 1B - Visible Passes

Search period start: 29 July 2015 00:00
Search period end: 08 August 2015 00:00
Orbit: 963 x 1209 km, 28.3° (Epoch: 28 July)

Date Brightness Start Highest point End Pass type
(mag) Time Alt. Az. Time Alt. Az. Time Alt. Az.
29 Jul 9.7 03:38:49 17° SSE 03:38:49 17° SSE 03:40:47 10° SSE visible
29 Jul 9.7 05:27:54 10° SSW 05:29:45 11° SSW 05:31:18 10° S visible
30 Jul 9.6 04:35:43 14° SSW 04:35:43 14° SSW 04:39:05 10° S visible
31 Jul 10.0 03:45:35 11° SSE 03:45:35 11° SSE 03:46:03 10° SSE visible
02 Aug 9.9 21:05:47 10° NNW 21:06:35 12° N 21:06:35 12° N visible
03 Aug 9.7 20:13:36 10° N 20:15:46 12° NNE 20:16:02 12° NNE visible
04 Aug 9.8 21:11:03 10° NNW 21:12:24 16° NNW 21:12:24 16° NNW visible
05 Aug 9.2 20:18:03 10° NNW 20:21:55 21° NNE 20:21:55 21° NNE visible
06 Aug 9.4 19:25:22 10° N 19:28:49 15° NNE 19:31:29 12° NE visible
06 Aug 9.8 21:16:55 10° NW 21:18:22 17° NW 21:18:22 17° NW visible
07 Aug 9.7 18:33:37 10° N 18:34:46 11° NNE 18:36:10 10° NNE visible
07 Aug 8.6 20:23:36 10° NW 20:27:58 33° N 20:27:58 33° N visible
